Time,TemperatureF,DewpointF,PressureIn,WindDirection,WindDirectionDegrees,WindSpeedMPH,WindSpeedGustMPH,Humidity,HourlyPrecipIn,Conditions,Clouds,dailyrainin,SoftwareType,DateUTC
2013-04-11 00:10:00,56.5,47.7,29.92,North,0,0.0,0.0,72,0.00,,,0.00,WUHU21623XXSP,2013-04-11 07:10:00,
2013-04-11 01:10:00,54.7,46.7,29.91,North,0,0.0,0.0,74,0.00,,,0.00,WUHU21623XXSP,2013-04-11 08:10:00,
2013-04-11 02:10:00,52.3,45.7,29.90,North,0,0.0,0.0,78,0.00,,,0.00,WUHU21623XXSP,2013-04-11 09:10:00,
2013-04-11 03:10:00,50.7,44.8,29.89,North,0,0.0,0.0,80,0.00,,,0.00,WUHU21623XXSP,2013-04-11 10:10:00,
2013-04-11 04:10:00,49.6,44.3,29.88,North,0,0.0,0.0,82,0.00,,,0.00,WUHU21623XXSP,2013-04-11 11:10:00,
2013-04-11 05:10:00,48.7,44.1,29.89,North,0,0.0,0.0,84,0.00,,,0.00,WUHU21623XXSP,2013-04-11 12:10:00,
2013-04-11 06:10:00,48.4,43.8,29.90,North,0,0.0,0.0,84,0.00,,,0.00,WUHU21623XXSP,2013-04-11 13:10:00,
2013-04-11 07:03:00,48.0,44.0,29.89,North,0,0.0,0.0,86,0.00,,,0.00,WUHU21623XXSP,2013-04-11 14:03:00,
2013-04-11 07:08:00,48.0,44.0,29.89,North,0,0.0,0.0,86,0.00,,,0.00,WUHU21623XXSP,2013-04-11 14:08:00,
2013-04-11 07:13:00,48.0,44.0,29.90,North,0,0.0,0.0,86,0.00,,,0.00,WUHU21623XXSP,2013-04-11 14:13:00,
2013-04-11 07:18:00,48.0,44.0,29.89,North,0,0.0,0.0,86,0.00,,,0.00,WUHU21623XXSP,2013-04-11 14:18:00,
2013-04-11 07:23:00,48.2,44.2,29.89,North,0,0.0,0.0,86,0.00,,,0.00,WUHU21623XXSP,2013-04-11 14:23:00,
2013-04-11 07:28:00,48.4,44.4,29.89,North,0,0.0,0.0,86,0.00,,,0.00,WUHU21623XXSP,2013-04-11 14:28:00,
2013-04-11 07:33:00,48.4,44.4,29.89,North,0,0.0,0.0,86,0.00,,,0.00,WUHU21623XXSP,2013-04-11 14:33:00,
2013-04-11 07:38:00,48.4,44.4,29.90,North,0,0.0,0.0,86,0.00,,,0.00,WUHU21623XXSP,2013-04-11 14:38:00,
2013-04-11 07:43:00,48.4,44.4,29.90,North,0,0.0,0.0,86,0.00,,,0.00,WUHU21623XXSP,2013-04-11 14:43:00,
2013-04-11 07:48:00,48.4,44.4,29.89,North,0,0.0,0.0,86,0.00,,,0.00,WUHU21623XXSP,2013-04-11 14:48:00,
2013-04-11 07:53:00,48.7,45.0,29.89,North,0,0.0,0.0,87,0.00,,,0.00,WUHU21623XXSP,2013-04-11 14:53:00,
2013-04-11 07:58:00,48.7,45.0,29.90,North,0,0.0,0.0,87,0.00,,,0.00,WUHU21623XXSP,2013-04-11 14:58:00,
2013-04-11 08:03:00,48.9,45.2,29.90,North,0,0.0,0.0,87,0.00,,,0.00,WUHU21623XXSP,2013-04-11 15:03:00,
2013-04-11 08:08:00,49.3,45.5,29.90,North,0,0.0,0.0,87,0.00,,,0.00,WUHU21623XXSP,2013-04-11 15:08:00,
2013-04-11 08:13:00,49.8,46.3,29.90,North,0,0.0,0.0,88,0.00,,,0.00,WUHU21623XXSP,2013-04-11 15:13:00,
2013-04-11 08:18:00,50.2,46.7,29.90,North,0,0.0,0.0,88,0.00,,,0.00,WUHU21623XXSP,2013-04-11 15:18:00,
2013-04-11 08:23:00,50.5,47.0,29.90,North,0,0.0,0.0,88,0.00,,,0.00,WUHU21623XXSP,2013-04-11 15:23:00,
2013-04-11 08:28:00,50.9,47.4,29.90,North,0,0.0,0.0,88,0.00,,,0.00,WUHU21623XXSP,2013-04-11 15:28:00,
2013-04-11 08:33:00,51.4,47.9,29.90,North,0,0.0,0.0,88,0.00,,,0.00,WUHU21623XXSP,2013-04-11 15:33:00,
2013-04-11 08:38:00,52.0,48.5,29.90,North,0,0.0,0.0,88,0.00,,,0.00,WUHU21623XXSP,2013-04-11 15:38:00,
2013-04-11 08:43:00,52.3,48.8,29.90,North,0,0.0,0.0,88,0.00,,,0.00,WUHU21623XXSP,2013-04-11 15:43:00,
2013-04-11 08:48:00,53.4,49.9,29.90,North,0,0.0,0.0,88,0.00,,,0.00,WUHU21623XXSP,2013-04-11 15:48:00,
2013-04-11 08:53:00,54.3,50.5,29.90,North,0,0.0,0.0,87,0.00,,,0.00,WUHU21623XXSP,2013-04-11 15:53:00,
2013-04-11 08:58:00,55.2,51.0,29.90,North,0,0.0,0.0,86,0.00,,,0.00,WUHU21623XXSP,2013-04-11 15:58:00,
2013-04-11 09:03:00,56.1,51.6,29.90,North,0,0.0,0.0,85,0.00,,,0.00,WUHU21623XXSP,2013-04-11 16:03:00,
2013-04-11 09:08:00,56.7,51.8,29.90,North,0,0.0,0.0,84,0.00,,,0.00,WUHU21623XXSP,2013-04-11 16:08:00,
2013-04-11 09:13:00,57.2,52.1,29.90,North,0,0.0,0.0,83,0.00,,,0.00,WUHU21623XXSP,2013-04-11 16:13:00,
2013-04-11 09:18:00,57.7,52.3,29.90,North,0,0.0,0.0,82,0.00,,,0.00,WUHU21623XXSP,2013-04-11 16:18:00,
2013-04-11 09:23:00,58.3,52.2,29.89,North,0,0.0,0.0,80,0.00,,,0.00,WUHU21623XXSP,2013-04-11 16:23:00,
2013-04-11 09:28:00,58.8,52.3,29.90,North,0,0.0,0.0,79,0.00,,,0.00,WUHU21623XXSP,2013-04-11 16:28:00,
2013-04-11 09:33:00,59.5,52.3,29.90,North,0,0.0,0.0,77,0.00,,,0.00,WUHU21623XXSP,2013-04-11 16:33:00,
2013-04-11 09:38:00,60.1,52.5,29.90,North,0,0.0,0.0,76,0.00,,,0.00,WUHU21623XXSP,2013-04-11 16:38:00,
2013-04-11 09:43:00,60.8,52.3,29.89,North,0,0.0,0.0,74,0.00,,,0.00,WUHU21623XXSP,2013-04-11 16:43:00,
2013-04-11 09:48:00,61.0,52.7,29.89,North,0,0.0,0.0,74,0.00,,,0.00,WUHU21623XXSP,2013-04-11 16:48:00,
2013-04-11 09:53:00,61.3,52.6,29.90,North,0,0.0,0.0,73,0.00,,,0.00,WUHU21623XXSP,2013-04-11 16:53:00,
2013-04-11 09:58:00,61.5,52.1,29.90,North,0,0.0,0.0,71,0.00,,,0.00,WUHU21623XXSP,2013-04-11 16:58:00,
2013-04-11 10:03:00,61.9,52.4,29.90,North,0,0.0,0.0,71,0.00,,,0.00,WUHU21623XXSP,2013-04-11 17:03:00,
2013-04-11 10:08:00,62.1,52.2,29.89,North,0,0.0,0.0,70,0.00,,,0.00,WUHU21623XXSP,2013-04-11 17:08:00,
2013-04-11 10:13:00,62.2,52.0,29.89,North,0,0.0,0.0,69,0.00,,,0.00,WUHU21623XXSP,2013-04-11 17:13:00,
2013-04-11 10:18:00,62.4,51.7,29.89,North,0,0.0,0.0,68,0.00,,,0.00,WUHU21623XXSP,2013-04-11 17:18:00,
2013-04-11 10:23:00,62.6,51.9,29.89,North,0,0.0,0.0,68,0.00,,,0.00,WUHU21623XXSP,2013-04-11 17:23:00,
2013-04-11 10:28:00,62.8,52.0,29.89,North,0,0.0,0.0,68,0.00,,,0.00,WUHU21623XXSP,2013-04-11 17:28:00,
2013-04-11 10:33:00,62.8,51.6,29.89,North,0,0.0,0.0,67,0.00,,,0.00,WUHU21623XXSP,2013-04-11 17:33:00,
2013-04-11 10:38:00,63.1,52.4,29.89,North,0,0.0,0.0,68,0.00,,,0.00,WUHU21623XXSP,2013-04-11 17:38:00,
2013-04-11 10:43:00,63.3,52.1,29.89,North,0,0.0,0.0,67,0.00,,,0.00,WUHU21623XXSP,2013-04-11 17:43:00,
2013-04-11 10:48:00,63.3,51.7,29.89,North,0,0.0,0.0,66,0.00,,,0.00,WUHU21623XXSP,2013-04-11 17:48:00,
2013-04-11 10:53:00,63.7,51.7,29.89,North,0,0.0,0.0,65,0.00,,,0.00,WUHU21623XXSP,2013-04-11 17:53:00,
2013-04-11 10:58:00,64.2,52.2,29.89,North,0,0.0,0.0,65,0.00,,,0.00,WUHU21623XXSP,2013-04-11 17:58:00,
2013-04-11 11:03:00,64.2,52.2,29.89,North,0,0.0,0.0,65,0.00,,,0.00,WUHU21623XXSP,2013-04-11 18:03:00,
2013-04-11 11:08:00,64.6,52.5,29.88,North,0,0.0,0.0,65,0.00,,,0.00,WUHU21623XXSP,2013-04-11 18:08:00,
2013-04-11 11:13:00,65.1,52.6,29.88,North,0,0.0,0.0,64,0.00,,,0.00,WUHU21623XXSP,2013-04-11 18:13:00,
2013-04-11 11:18:00,65.5,52.9,29.89,North,0,0.0,0.0,64,0.00,,,0.00,WUHU21623XXSP,2013-04-11 18:18:00,
2013-04-11 11:23:00,65.7,52.7,29.88,North,0,0.0,0.0,63,0.00,,,0.00,WUHU21623XXSP,2013-04-11 18:23:00,
2013-04-11 11:28:00,65.8,52.9,29.88,North,0,0.0,0.0,63,0.00,,,0.00,WUHU21623XXSP,2013-04-11 18:28:00,
2013-04-11 11:33:00,66.0,53.0,29.88,North,0,0.0,0.0,63,0.00,,,0.00,WUHU21623XXSP,2013-04-11 18:33:00,
2013-04-11 11:38:00,66.4,53.0,29.88,North,0,0.0,0.0,62,0.00,,,0.00,WUHU21623XXSP,2013-04-11 18:38:00,
2013-04-11 11:43:00,66.6,53.1,29.88,North,0,0.0,0.0,62,0.00,,,0.00,WUHU21623XXSP,2013-04-11 18:43:00,
2013-04-11 11:49:00,66.7,53.3,29.88,North,0,0.0,0.0,62,0.00,,,0.00,WUHU21623XXSP,2013-04-11 18:49:00,
2013-04-11 11:54:00,67.1,53.6,29.88,North,0,0.0,0.0,62,0.00,,,0.00,WUHU21623XXSP,2013-04-11 18:54:00,
2013-04-11 11:58:00,67.3,53.4,29.88,North,0,0.0,0.0,61,0.00,,,0.00,WUHU21623XXSP,2013-04-11 18:58:00,
2013-04-11 12:04:00,67.6,53.3,29.88,North,0,0.0,0.0,60,0.00,,,0.00,WUHU21623XXSP,2013-04-11 19:04:00,
2013-04-11 12:09:00,67.6,52.8,29.88,North,0,0.0,0.0,59,0.00,,,0.00,WUHU21623XXSP,2013-04-11 19:09:00,
2013-04-11 12:14:00,67.8,53.0,29.88,North,0,0.0,0.0,59,0.00,,,0.00,WUHU21623XXSP,2013-04-11 19:14:00,
2013-04-11 12:19:00,67.8,52.5,29.87,North,0,0.0,0.0,58,0.00,,,0.00,WUHU21623XXSP,2013-04-11 19:19:00,
2013-04-11 12:24:00,68.0,51.7,29.87,North,0,0.0,0.0,56,0.00,,,0.00,WUHU21623XXSP,2013-04-11 19:24:00,
2013-04-11 12:29:00,68.2,51.8,29.87,North,0,0.0,0.0,56,0.00,,,0.00,WUHU21623XXSP,2013-04-11 19:29:00,
2013-04-11 12:34:00,68.2,52.3,29.87,North,0,0.0,0.0,57,0.00,,,0.00,WUHU21623XXSP,2013-04-11 19:34:00,
2013-04-11 12:39:00,68.5,52.2,29.87,North,0,0.0,0.0,56,0.00,,,0.00,WUHU21623XXSP,2013-04-11 19:39:00,
2013-04-11 12:44:00,69.1,51.7,29.87,North,0,0.0,0.0,54,0.00,,,0.00,WUHU21623XXSP,2013-04-11 19:44:00,
2013-04-11 12:49:00,69.3,51.4,29.86,North,0,0.0,0.0,53,0.00,,,0.00,WUHU21623XXSP,2013-04-11 19:49:00,
2013-04-11 12:54:00,69.6,51.7,29.86,North,0,0.0,0.0,53,0.00,,,0.00,WUHU21623XXSP,2013-04-11 19:54:00,
2013-04-11 12:59:00,69.8,51.4,29.86,North,0,0.0,0.0,52,0.00,,,0.00,WUHU21623XXSP,2013-04-11 19:59:00,
2013-04-11 13:04:00,70.2,51.2,29.86,North,0,0.0,0.0,51,0.00,,,0.00,WUHU21623XXSP,2013-04-11 20:04:00,
2013-04-11 13:09:00,70.3,51.4,29.86,North,0,0.0,0.0,51,0.00,,,0.00,WUHU21623XXSP,2013-04-11 20:09:00,
2013-04-11 13:14:00,70.3,50.8,29.86,North,0,0.0,0.0,50,0.00,,,0.00,WUHU21623XXSP,2013-04-11 20:14:00,
2013-04-11 13:19:00,70.3,51.4,29.86,North,0,0.0,0.0,51,0.00,,,0.00,WUHU21623XXSP,2013-04-11 20:19:00,
2013-04-11 13:24:00,70.3,49.7,29.86,North,0,0.0,0.0,48,0.00,,,0.00,WUHU21623XXSP,2013-04-11 20:24:00,
2013-04-11 13:29:00,70.3,48.5,29.85,North,0,0.0,0.0,46,0.00,,,0.00,WUHU21623XXSP,2013-04-11 20:29:00,
2013-04-11 13:34:00,70.3,48.5,29.86,North,0,0.0,0.0,46,0.00,,,0.00,WUHU21623XXSP,2013-04-11 20:34:00,
2013-04-11 13:39:00,70.5,48.0,29.85,North,0,0.0,0.0,45,0.00,,,0.00,WUHU21623XXSP,2013-04-11 20:39:00,
2013-04-11 13:44:00,70.7,48.2,29.85,North,0,0.0,0.0,45,0.00,,,0.00,WUHU21623XXSP,2013-04-11 20:44:00,
2013-04-11 13:49:00,71.1,47.9,29.84,North,0,0.0,0.0,44,0.00,,,0.00,WUHU21623XXSP,2013-04-11 20:49:00,
2013-04-11 13:54:00,71.4,46.5,29.85,North,0,0.0,0.0,41,0.00,,,0.00,WUHU21623XXSP,2013-04-11 20:54:00,
2013-04-11 13:59:00,71.4,46.5,29.85,North,0,0.0,0.0,41,0.00,,,0.00,WUHU21623XXSP,2013-04-11 20:59:00,
2013-04-11 14:04:00,71.4,47.1,29.84,North,0,0.0,0.0,42,0.00,,,0.00,WUHU21623XXSP,2013-04-11 21:04:00,
2013-04-11 14:09:00,71.8,46.2,29.84,North,0,0.0,0.0,40,0.00,,,0.00,WUHU21623XXSP,2013-04-11 21:09:00,
2013-04-11 14:14:00,71.8,46.8,29.84,North,0,0.0,0.0,41,0.00,,,0.00,WUHU21623XXSP,2013-04-11 21:14:00,
2013-04-11 14:19:00,72.1,47.1,29.83,North,0,0.0,0.0,41,0.00,,,0.00,WUHU21623XXSP,2013-04-11 21:19:00,
2013-04-11 14:24:00,72.3,46.7,29.84,North,0,0.0,0.0,40,0.00,,,0.00,WUHU21623XXSP,2013-04-11 21:24:00,
2013-04-11 14:29:00,72.3,44.4,29.84,North,0,0.0,0.0,37,0.00,,,0.00,WUHU21623XXSP,2013-04-11 21:29:00,
2013-04-11 14:34:00,72.1,43.5,29.83,North,0,0.0,0.0,36,0.00,,,0.00,WUHU21623XXSP,2013-04-11 21:34:00,
2013-04-11 14:39:00,71.8,43.2,29.83,North,0,0.0,0.0,36,0.00,,,0.00,WUHU21623XXSP,2013-04-11 21:39:00,
2013-04-11 14:44:00,71.8,41.8,29.83,North,0,0.0,0.0,34,0.00,,,0.00,WUHU21623XXSP,2013-04-11 21:44:00,
2013-04-11 14:49:00,71.8,41.8,29.83,North,0,0.0,0.0,34,0.00,,,0.00,WUHU21623XXSP,2013-04-11 21:49:00,
2013-04-11 14:54:00,71.4,41.5,29.82,North,0,0.0,0.0,34,0.00,,,0.00,WUHU21623XXSP,2013-04-11 21:54:00,
2013-04-11 14:59:00,71.2,41.3,29.82,North,0,0.0,0.0,34,0.00,,,0.00,WUHU21623XXSP,2013-04-11 21:59:00,
2013-04-11 15:04:00,71.4,42.2,29.82,North,0,0.0,0.0,35,0.00,,,0.00,WUHU21623XXSP,2013-04-11 22:04:00,
2013-04-11 15:09:00,71.8,42.5,29.82,North,0,0.0,0.0,35,0.00,,,0.00,WUHU21623XXSP,2013-04-11 22:09:00,
2013-04-11 15:14:00,72.1,43.5,29.82,North,0,0.0,0.0,36,0.00,,,0.00,WUHU21623XXSP,2013-04-11 22:14:00,
2013-04-11 15:19:00,72.5,43.9,29.82,North,0,0.0,0.0,36,0.00,,,0.00,WUHU21623XXSP,2013-04-11 22:19:00,
2013-04-11 15:24:00,73.0,43.6,29.82,North,0,0.0,0.0,35,0.00,,,0.00,WUHU21623XXSP,2013-04-11 22:24:00,
2013-04-11 15:29:00,72.9,42.7,29.82,North,0,0.0,0.0,34,0.00,,,0.00,WUHU21623XXSP,2013-04-11 22:29:00,
2013-04-11 15:34:00,73.0,43.6,29.81,North,0,0.0,0.0,35,0.00,,,0.00,WUHU21623XXSP,2013-04-11 22:34:00,
2013-04-11 15:39:00,73.2,43.7,29.81,North,0,0.0,0.0,35,0.00,,,0.00,WUHU21623XXSP,2013-04-11 22:39:00,
2013-04-11 15:44:00,73.6,44.8,29.81,North,0,0.0,0.0,36,0.00,,,0.00,WUHU21623XXSP,2013-04-11 22:44:00,
2013-04-11 15:49:00,73.8,45.7,29.81,North,0,0.0,0.0,37,0.00,,,0.00,WUHU21623XXSP,2013-04-11 22:49:00,
2013-04-11 15:54:00,73.9,45.9,29.80,North,0,0.0,0.0,37,0.00,,,0.00,WUHU21623XXSP,2013-04-11 22:54:00,
2013-04-11 15:59:00,74.1,46.0,29.80,North,0,0.0,0.0,37,0.00,,,0.00,WUHU21623XXSP,2013-04-11 22:59:00,
2013-04-11 16:04:00,73.9,45.1,29.80,North,0,0.0,0.0,36,0.00,,,0.00,WUHU21623XXSP,2013-04-11 23:04:00,
2013-04-11 16:09:00,73.8,44.2,29.80,North,0,0.0,0.0,35,0.00,,,0.00,WUHU21623XXSP,2013-04-11 23:09:00,
2013-04-11 16:14:00,73.8,45.7,29.80,North,0,0.0,0.0,37,0.00,,,0.00,WUHU21623XXSP,2013-04-11 23:14:00,
2013-04-11 16:19:00,73.8,45.7,29.79,North,0,0.0,0.0,37,0.00,,,0.00,WUHU21623XXSP,2013-04-11 23:19:00,
2013-04-11 16:24:00,73.6,45.6,29.79,North,0,0.0,0.0,37,0.00,,,0.00,WUHU21623XXSP,2013-04-11 23:24:00,
2013-04-11 16:29:00,73.2,45.2,29.79,North,0,0.0,0.0,37,0.00,,,0.00,WUHU21623XXSP,2013-04-11 23:29:00,
2013-04-11 16:34:00,73.2,45.2,29.78,North,0,0.0,0.0,37,0.00,,,0.00,WUHU21623XXSP,2013-04-11 23:34:00,
2013-04-11 16:39:00,73.2,45.2,29.78,North,0,0.0,0.0,37,0.00,,,0.00,WUHU21623XXSP,2013-04-11 23:39:00,
2013-04-11 16:44:00,73.2,45.2,29.78,North,0,0.0,0.0,37,0.00,,,0.00,WUHU21623XXSP,2013-04-11 23:44:00,
2013-04-11 16:49:00,73.2,45.2,29.78,North,0,0.0,0.0,37,0.00,,,0.00,WUHU21623XXSP,2013-04-11 23:49:00,
2013-04-11 16:54:00,73.2,46.0,29.78,North,0,0.0,0.0,38,0.00,,,0.00,WUHU21623XXSP,2013-04-11 23:54:00,
2013-04-11 16:59:00,73.2,45.2,29.79,North,0,0.0,0.0,37,0.00,,,0.00,WUHU21623XXSP,2013-04-11 23:59:00,
2013-04-11 17:04:00,73.2,45.2,29.78,North,0,0.0,0.0,37,0.00,,,0.00,WUHU21623XXSP,2013-04-12 00:04:00,
2013-04-11 17:09:00,73.0,45.1,29.78,North,0,0.0,0.0,37,0.00,,,0.00,WUHU21623XXSP,2013-04-12 00:09:00,
2013-04-11 17:14:00,73.0,45.8,29.78,North,0,0.0,0.0,38,0.00,,,0.00,WUHU21623XXSP,2013-04-12 00:14:00,
2013-04-11 17:19:00,73.0,45.8,29.77,North,0,0.0,0.0,38,0.00,,,0.00,WUHU21623XXSP,2013-04-12 00:19:00,
2013-04-11 17:24:00,72.7,45.5,29.78,North,0,0.0,0.0,38,0.00,,,0.00,WUHU21623XXSP,2013-04-12 00:24:00,
2013-04-11 17:29:00,72.5,45.4,29.78,North,0,0.0,0.0,38,0.00,,,0.00,WUHU21623XXSP,2013-04-12 00:29:00,
2013-04-11 17:34:00,72.7,45.5,29.78,North,0,0.0,0.0,38,0.00,,,0.00,WUHU21623XXSP,2013-04-12 00:34:00,
2013-04-11 17:39:00,72.5,44.6,29.78,North,0,0.0,0.0,37,0.00,,,0.00,WUHU21623XXSP,2013-04-12 00:39:00,
2013-04-11 17:44:00,72.3,45.2,29.78,North,0,0.0,0.0,38,0.00,,,0.00,WUHU21623XXSP,2013-04-12 00:44:00,
2013-04-11 17:49:00,72.3,45.2,29.78,North,0,0.0,0.0,38,0.00,,,0.00,WUHU21623XXSP,2013-04-12 00:49:00,
2013-04-11 17:54:00,72.1,45.0,29.78,North,0,0.0,0.0,38,0.00,,,0.00,WUHU21623XXSP,2013-04-12 00:54:00,
2013-04-11 17:59:00,72.0,45.6,29.78,North,0,0.0,0.0,39,0.00,,,0.00,WUHU21623XXSP,2013-04-12 00:59:00,
2013-04-11 18:04:00,72.0,45.6,29.78,North,0,0.0,0.0,39,0.00,,,0.00,WUHU21623XXSP,2013-04-12 01:04:00,
2013-04-11 18:09:00,71.8,44.7,29.78,North,0,0.0,0.0,38,0.00,,,0.00,WUHU21623XXSP,2013-04-12 01:09:00,
2013-04-11 18:14:00,71.4,44.4,29.78,North,0,0.0,0.0,38,0.00,,,0.00,WUHU21623XXSP,2013-04-12 01:14:00,
2013-04-11 18:19:00,71.4,44.4,29.78,North,0,0.0,0.0,38,0.00,,,0.00,WUHU21623XXSP,2013-04-12 01:19:00,
2013-04-11 18:24:00,71.4,45.9,29.78,North,0,0.0,0.0,40,0.00,,,0.00,WUHU21623XXSP,2013-04-12 01:24:00,
2013-04-11 18:29:00,71.2,44.2,29.78,North,0,0.0,0.0,38,0.00,,,0.00,WUHU21623XXSP,2013-04-12 01:29:00,
2013-04-11 18:34:00,70.9,43.9,29.78,North,0,0.0,0.0,38,0.00,,,0.00,WUHU21623XXSP,2013-04-12 01:34:00,
2013-04-11 18:39:00,70.5,44.3,29.78,North,0,0.0,0.0,39,0.00,,,0.00,WUHU21623XXSP,2013-04-12 01:39:00,
2013-04-11 18:44:00,70.5,45.1,29.78,North,0,0.0,0.0,40,0.00,,,0.00,WUHU21623XXSP,2013-04-12 01:44:00,
2013-04-11 18:49:00,70.0,43.8,29.78,North,0,0.0,0.0,39,0.00,,,0.00,WUHU21623XXSP,2013-04-12 01:49:00,
2013-04-11 18:54:00,69.4,43.4,29.78,North,0,0.0,0.0,39,0.00,,,0.00,WUHU21623XXSP,2013-04-12 01:54:00,
2013-04-11 18:59:00,68.7,44.0,29.78,North,0,0.0,0.0,41,0.00,,,0.00,WUHU21623XXSP,2013-04-12 01:59:00,
2013-04-11 19:04:00,67.8,44.4,29.77,North,0,0.0,0.0,43,0.00,,,0.00,WUHU21623XXSP,2013-04-12 02:04:00,
2013-04-11 19:09:00,66.9,44.2,29.78,North,0,0.0,0.0,44,0.00,,,0.00,WUHU21623XXSP,2013-04-12 02:09:00,
2013-04-11 19:14:00,66.0,44.0,29.77,North,0,0.0,0.0,45,0.00,,,0.00,WUHU21623XXSP,2013-04-12 02:14:00,
2013-04-11 19:19:00,65.5,44.0,29.77,North,0,0.0,0.0,46,0.00,,,0.00,WUHU21623XXSP,2013-04-12 02:19:00,
2013-04-11 19:24:00,64.6,43.8,29.77,North,0,0.0,0.0,47,0.00,,,0.00,WUHU21623XXSP,2013-04-12 02:24:00,
2013-04-11 19:29:00,63.9,43.1,29.77,North,0,0.0,0.0,47,0.00,,,0.00,WUHU21623XXSP,2013-04-12 02:29:00,
2013-04-11 19:34:00,63.1,43.0,29.77,North,0,0.0,0.0,48,0.00,,,0.00,WUHU21623XXSP,2013-04-12 02:34:00,
2013-04-11 19:39:00,62.8,43.3,29.77,North,0,0.0,0.0,49,0.00,,,0.00,WUHU21623XXSP,2013-04-12 02:39:00,
2013-04-11 19:44:00,62.2,42.8,29.77,North,0,0.0,0.0,49,0.00,,,0.00,WUHU21623XXSP,2013-04-12 02:44:00,
2013-04-11 19:49:00,61.5,42.7,29.77,North,0,0.0,0.0,50,0.00,,,0.00,WUHU21623XXSP,2013-04-12 02:49:00,
2013-04-11 19:54:00,60.8,42.1,29.77,North,0,0.0,0.0,50,0.00,,,0.00,WUHU21623XXSP,2013-04-12 02:54:00,
2013-04-11 19:59:00,60.4,42.2,29.78,North,0,0.0,0.0,51,0.00,,,0.00,WUHU21623XXSP,2013-04-12 02:59:00,
2013-04-11 20:04:00,59.7,42.0,29.78,North,0,0.0,0.0,52,0.00,,,0.00,WUHU21623XXSP,2013-04-12 03:04:00,
2013-04-11 20:09:00,59.2,42.0,29.78,North,0,0.0,0.0,53,0.00,,,0.00,WUHU21623XXSP,2013-04-12 03:09:00,
2013-04-11 20:14:00,58.8,42.2,29.78,North,0,0.0,0.0,54,0.00,,,0.00,WUHU21623XXSP,2013-04-12 03:14:00,
2013-04-11 20:19:00,58.3,41.7,29.78,North,0,0.0,0.0,54,0.00,,,0.00,WUHU21623XXSP,2013-04-12 03:19:00,
2013-04-11 20:24:00,58.1,41.5,29.78,North,0,0.0,0.0,54,0.00,,,0.00,WUHU21623XXSP,2013-04-12 03:24:00,
2013-04-11 20:29:00,57.7,41.7,29.78,North,0,0.0,0.0,55,0.00,,,0.00,WUHU21623XXSP,2013-04-12 03:29:00,
2013-04-11 20:34:00,57.4,41.8,29.78,North,0,0.0,0.0,56,0.00,,,0.00,WUHU21623XXSP,2013-04-12 03:34:00,
2013-04-11 20:39:00,57.0,41.9,29.79,North,0,0.0,0.0,57,0.00,,,0.00,WUHU21623XXSP,2013-04-12 03:39:00,
2013-04-11 20:44:00,56.7,41.6,29.78,North,0,0.0,0.0,57,0.00,,,0.00,WUHU21623XXSP,2013-04-12 03:44:00,
2013-04-11 20:49:00,56.5,41.9,29.78,North,0,0.0,0.0,58,0.00,,,0.00,WUHU21623XXSP,2013-04-12 03:49:00,
2013-04-11 20:54:00,56.1,41.5,29.78,North,0,0.0,0.0,58,0.00,,,0.00,WUHU21623XXSP,2013-04-12 03:54:00,
2013-04-11 20:59:00,55.9,41.8,29.79,North,0,0.0,0.0,59,0.00,,,0.00,WUHU21623XXSP,2013-04-12 03:59:00,
2013-04-11 21:00:00,55.9,41.3,29.79,North,0,0.0,0.0,58,0.00,,,0.00,WUHU21623XXSP,2013-04-12 04:00:00,
2013-04-11 21:10:00,55.4,41.9,29.79,North,0,0.0,0.0,60,0.00,,,0.00,WUHU21623XXSP,2013-04-12 04:10:00,
2013-04-11 22:10:00,53.4,41.6,29.78,North,0,0.0,0.0,64,0.00,,,0.00,WUHU21623XXSP,2013-04-12 05:10:00,
2013-04-11 23:10:00,51.1,41.4,29.77,North,0,0.0,0.0,69,0.00,,,0.00,WUHU21623XXSP,2013-04-12 06:10:00,